Location: St. Louis
(38.6270°N, 90.1994°W)
Time: 00:31:32
(UTC-05:00)

RS-15 - Pass Details

Date: 29 January 2022
Orbit: 1886 x 2159 km, 64.8° (Epoch: 07 June)

Event Time Altitude Azimuth Distance (km) Brightness Sun altitude
Rises 23:37:00 0° 322° (NW) 5,622 10.7 -67.5°
Reaches altitude 10° 23:41:24 10° 334° (NNW) 4,647 10.2 -67.9°
Enters shadow 23:44:43 18° 348° (NNW) 4,036 9.8 -68.1°
